Weather in Tampa

United States     27°56′50″N   82°27′31″W
temp.,
°C
wind,
m/s
gust,
m/s
humid.,
%
clouds,
%
prec.,
mm/h
press.,
hPa
HPBL,
m
26 may, thu
thu2623:00+26ese3570100 1.9 1019326
02:00+25ese6118087 2.1 1018507
05:00+24se598295 0.0 1017455
08:00+24se598189 0.0 1019529
11:00+29se565488 0.0 10191198
14:00+33ssw453698 0.0 10171753
17:00+30sw665163 0.0 1016732
20:00+29sw565172 0.0 1016581
27 may, fri
fri2723:00+27ssw3563100 0.0 1017501
02:00+27s356987 0.2 1016455
05:00+26s467595 0.5 1015548
08:00+27s567081 0.6 1016845
11:00+29s56551 0.0 10161208
14:00+31sw76495 0.0 10151383
17:00+31sw76460 0.0 10141273
20:00+28wsw67610 0.0 1014999
28 may, sat
sat2823:00+27wsw56670 0.0 1014746
02:00+26wsw34700 0.0 1013599
05:00+26w23730 1.3 1013364
08:00+26w12720 2.9 1014201
11:00+29sw225416 0.3 10141282
14:00+30sw54487 0.3 10141458
17:00+31w54412 0.0 10121578
20:00+29wnw44430 0.0 1012720
29 may, sun
sun2923:00+27nw23500 0.0 1014414
02:00+25nne22550 0.0 1014184
05:00+24nne22600 0.0 1013124
08:00+25ne23600 0.0 1015227
11:00+30se23430 0.0 1016949
14:00+32ssw33390 0.0 10141770
17:00+33w444036 0.0 10121448
20:00+26ne7973100 3.4 1016634
30 may, mon
mon3023:00+25se3560100 2.3 1016223
02:00+24e357299 2.3 1017270
05:00+24ese357797 0.0 1017226
08:00+24e4681100 0.0 1018291
11:00+30e555395 0.0 10181172
14:00+34e463950 0.0 10171822
17:00+34ene6638100 0.0 10151683
20:00+29wsw245895 0.4 1017297